TimeCDT,TemperatureF,Dew PointF,Humidity,Sea Level PressureIn,VisibilityMPH,Wind Direction,Wind SpeedMPH,Gust SpeedMPH,PrecipitationIn,Events,Conditions,WindDirDegrees,DateUTC
12:53 AM,66.9,59.0,76,30.05,10.0,Calm,Calm,-,N/A,,Clear,0,2012-09-12 05:53:00
1:53 AM,63.0,59.0,87,30.05,10.0,NE,3.5,-,N/A,,Clear,50,2012-09-12 06:53:00
2:53 AM,61.0,57.9,90,30.04,8.0,Calm,Calm,-,N/A,,Clear,0,2012-09-12 07:53:00
3:53 AM,61.0,59.0,93,30.05,9.0,Calm,Calm,-,N/A,,Clear,0,2012-09-12 08:53:00
4:53 AM,59.0,57.9,96,30.05,5.0,Calm,Calm,-,N/A,,Clear,0,2012-09-12 09:53:00
5:53 AM,57.9,57.0,97,30.07,5.0,Calm,Calm,-,N/A,,Clear,0,2012-09-12 10:53:00
6:53 AM,57.0,55.9,96,30.08,4.0,Calm,Calm,-,N/A,,Clear,0,2012-09-12 11:53:00
7:12 AM,57.2,55.4,94,30.10,2.0,Calm,Calm,-,N/A,,Clear,0,2012-09-12 12:12:00
7:24 AM,57.2,55.4,94,30.11,4.0,Calm,Calm,-,N/A,,Clear,0,2012-09-12 12:24:00
7:53 AM,61.0,57.9,90,30.10,4.0,Calm,Calm,-,N/A,,Clear,0,2012-09-12 12:53:00
8:53 AM,71.1,61.0,70,30.11,7.0,ENE,4.6,-,N/A,,Clear,60,2012-09-12 13:53:00
9:53 AM,75.9,61.0,60,30.11,10.0,Variable,3.5,-,N/A,,Clear,0,2012-09-12 14:53:00
10:53 AM,82.0,61.0,49,30.11,10.0,Variable,4.6,-,N/A,,Clear,0,2012-09-12 15:53:00
11:53 AM,84.0,59.0,43,30.10,10.0,Variable,5.8,-,N/A,,Scattered Clouds,0,2012-09-12 16:53:00
12:53 PM,86.0,60.1,41,30.08,10.0,Variable,6.9,-,N/A,,Clear,0,2012-09-12 17:53:00
1:53 PM,89.1,60.1,38,30.05,10.0,Variable,4.6,16.1,N/A,,Partly Cloudy,0,2012-09-12 18:53:00
2:53 PM,89.1,59.0,36,30.02,10.0,SSE,9.2,18.4,N/A,,Partly Cloudy,150,2012-09-12 19:53:00
3:53 PM,89.1,59.0,36,30.00,10.0,SSE,6.9,-,N/A,,Clear,160,2012-09-12 20:53:00
4:53 PM,89.1,59.0,36,29.99,10.0,SSE,10.4,16.1,N/A,,Clear,150,2012-09-12 21:53:00
5:53 PM,88.0,59.0,37,29.98,10.0,ESE,8.1,-,N/A,,Clear,120,2012-09-12 22:53:00
6:53 PM,86.0,57.9,38,29.99,10.0,ESE,9.2,-,N/A,,Clear,110,2012-09-12 23:53:00
7:53 PM,82.0,60.1,47,30.00,10.0,ESE,8.1,-,N/A,,Clear,120,2012-09-13 00:53:00
8:53 PM,79.0,61.0,54,30.02,10.0,ESE,9.2,-,N/A,,Clear,110,2012-09-13 01:53:00
9:53 PM,77.0,62.1,60,30.04,10.0,East,5.8,-,N/A,,Clear,100,2012-09-13 02:53:00
10:53 PM,75.0,62.1,64,30.06,10.0,East,4.6,-,N/A,,Clear,80,2012-09-13 03:53:00
11:53 PM,71.1,62.1,73,30.06,9.0,ENE,3.5,-,N/A,,Clear,70,2012-09-13 04:53:00